Location: Dodgeville, WI 53533, USA
(43.0344°N, 90.0900°W)
Time: 15:55:19
(UTC-05:00)

Envisat - Visible Passes

Search period start: 25 September 2022 00:00
Search period end: 05 October 2022 00:00
Orbit: 764 x 765 km, 98.2° (Epoch: 25 September)

Date Brightness Start Highest point End Pass type
(mag) Time Alt. Az. Time Alt. Az. Time Alt. Az.
25 Sep 5.8 04:02:41 10° ENE 04:05:14 14° E 04:07:48 10° ESE visible
25 Sep 2.9 05:39:42 10° N 05:44:47 72° WNW 05:49:49 10° SSW visible
26 Sep 3.8 05:02:49 10° NNE 05:07:48 52° E 05:12:44 10° S visible
27 Sep 5.2 04:26:33 10° NE 04:30:38 24° E 04:34:40 10° SSE visible
27 Sep 3.4 06:05:00 10° N 06:09:46 42° WNW 06:14:32 10° SW visible
28 Sep 6.0 03:52:22 10° ENE 03:53:14 10° E 03:54:05 10° E visible
28 Sep 3.0 05:27:49 10° NNE 05:32:56 89° ESE 05:38:01 10° SSW visible
29 Sep 4.2 04:51:06 10° NNE 04:55:54 40° E 05:00:39 10° SSE visible
30 Sep 5.5 04:15:07 10° NE 04:18:39 19° E 04:22:11 10° SE visible
30 Sep 3.1 05:53:02 10° N 05:57:59 54° WNW 06:02:54 10° SSW visible
01 Oct 3.2 05:16:00 10° NNE 05:21:04 71° ESE 05:26:08 10° S visible
02 Oct 4.7 04:39:26 10° NNE 04:43:59 32° E 04:48:29 10° SSE visible
02 Oct 3.7 06:18:27 10° N 06:22:56 32° WNW 06:27:23 10° SW visible
03 Oct 5.8 04:03:54 10° NE 04:06:40 15° E 04:09:26 10° ESE visible
03 Oct 2.9 05:41:06 10° N 05:46:10 69° WNW 05:51:12 10° SSW visible
04 Oct 3.7 05:04:12 10° NNE 05:09:12 55° E 05:14:10 10° S visible
